Location: Cosy Dell
(34.2789°N, 117.4537°W)
Time: 23:36:15
(UTC+00:00)

MetOp-A - Pass Details

Date: 14 July 2020
Orbit: 819 x 821 km, 98.5° (Epoch: 12 August)

Event Time Altitude Azimuth Distance (km) Brightness Sun altitude
Exits shadow 04:10:40 - 173° (S) 2,772 6.5 -12.7°
Reaches altitude 10° 04:11:35 10° 175° (S) 2,409 6.2 -12.8°
Maximum altitude 04:16:54 69° 258° (WSW) 876 4.4 -13.7°
Drops below altitude 10° 04:22:15 10° 342° (NNW) 2,422 7.5 -14.5°
Sets 04:24:37 0° 345° (NNW) 3,358 8.3 -14.9°
